Current weather by "City, St" or "zip code"  
 

Current Conditions: Houston, Pearland Regional Airport, TX

Fair


48.0 F

Last Updated on Oct 31 2020, 2:53 am CDT
Humidity: 83%
Wind Speed: N 0.0 mph
Barometer 30.23 in
Dewpoint: 43.0 F
Visibility: 7.00 mi
Precip: --
Heat Index: NA
Wind Chill: NA
Current conditions at:

Houston, Pearland Regional Airport, TX (KLVJ)

Lat: 29.52111 Lon: 95.24194

Local Radar Image active severe weather and emergency alerts image image weather storm and storm spotter reports image weather observation monitoring service image
Local
Radar
Active
Alerts
Storm Reports Obs
Monitoring

Sign-up For Email & Text Message Weather Alert Notification Services



Advertise Here

Observation History for Houston, Pearland Regional Airport, TX


Time Wind
(mph)
Vis
(mi)
Weather Precip (in) Temperature (F) Relative
Humidity
Wind
Chill
(F)
Heat
Index
(F)
Pressure
Air Dwpt altimeter
(in)
sea level
(mb)
Rmks
2:53 am CDT N 0.0 7.00 Fair -- 48.0 43.0 83% NA NA 30.23 1023.6
1:53 am CDT N 0.0 9.00 Fair -- 48.0 44.1 86% NA NA 30.23 1023.6
12:53 am CDT N 0.0 9.00 Fair -- 49.0 44.1 83% NA NA 30.24 1023.8
11:53 pm CDT N 0.0 10.00 Fair -- 50.0 45.0 83% NA NA 30.24 1024.0
10:53 pm CDT N 0.0 10.00 Fair -- 51.0 46.0 83% NA NA 30.23 1023.7
9:53 pm CDT N 0.0 10.00 Fair -- 52.0 46.0 80% NA NA 30.23 1023.5
8:53 pm CDT N 0.0 10.00 Fair -- 53.0 46.0 77% NA NA 30.22 1023.1
7:53 pm CDT N 0.0 10.00 Fair -- 56.0 46.0 70% NA NA 30.21 1022.9
6:53 pm CDT N 0.0 10.00 Fair -- 61.0 46.0 58% NA NA 30.20 1022.6
5:53 pm CDT N 4.6 10.00 Fair -- 69.0 39.9 35% NA NA 30.20 1022.5
4:53 pm CDT N 0.0 10.00 Fair -- 69.0 39.9 35% NA NA 30.21 1022.9
3:53 pm CDT NE 3.5 10.00 Fair -- 68.0 39.9 36% NA NA 30.22 1023.1
2:53 pm CDT 3.5 10.00 Fair -- 66.0 43.0 43% NA NA 30.23 1023.7
1:53 pm CDT N 0.0 9.00 Fair -- 64.0 44.1 48% NA NA 30.26 1024.5
12:53 pm CDT SE 4.6 10.00 Fair -- 61.0 45.0 56% 61 NA 30.29 1025.7
11:53 am CDT 3.5 10.00 A Few Clouds -- 59.0 44.1 58% NA NA 30.32 1026.6
10:53 am CDT E 9.2 10.00 Fair -- 57.0 44.1 62% 55 NA 30.32 1026.6
9:53 am CDT NE 12.7 G 20.7 10.00 Partly Cloudy -- 55.0 44.1 67% 52 NA 30.31 1026.3
8:53 am CDT NE 6.9 10.00 Fair -- 53.0 43.0 69% 51 NA 30.29 1025.7
7:53 am CDT N 4.6 10.00 Fair -- 47.0 41.0 80% 45 NA 30.26 1024.7
6:53 am CDT NE 4.6 10.00 Fair -- 48.0 41.0 77% 46 NA 30.25 1024.1
5:53 am CDT N 0.0 10.00 Fair -- 50.0 41.0 71% NA NA 30.23 1023.6
4:53 am CDT N 9.2 10.00 Fair -- 53.0 41.0 64% 50 NA 30.21 1023.0

Regional Weather Observation


Houston, Houston Hobby Airport, TX (KHOU)

Fair
54.0 F

Houston Southwest Airport, TX (KAXH)

Fog/Mist
44.0 F

Houston, Pearland Regional Airport, TX (KLVJ)

Fair
48.0 F

Angleton / Lake Jackson, Brazoria County Airport, TX (KLBX)

Fog/Mist
46.0 F

Houston, Hooks Memorial Airport, TX (KDWH)

Fog/Mist
45.0 F

Conroe, Montgomery County Airport, TX (KCXO)

Fair
41.0 F